timestamp,wind_dir_avg,wind_spd_avg,wind_spd_max_dir,wind_spd_gust,battery_voltage,lat,long
2022-10-19 00:04:01+00:00,66.0,7.82,70.0,9.03,12.49,47.59359,-54.27349
2022-10-19 00:14:01+00:00,69.0,6.01,67.0,7.63,12.57,47.59359,-54.27349
2022-10-19 00:24:01+00:00,59.0,7.64,63.0,8.53,12.57,47.59359,-54.27349
2022-10-19 00:34:01+00:00,71.0,6.28,66.0,7.97,12.57,47.59359,-54.27349
2022-10-19 00:44:01+00:00,71.0,6.06,74.0,8.86,12.57,47.59359,-54.27349
2022-10-19 00:54:01+00:00,79.0,4.24,81.0,6.66,12.57,47.59359,-54.27349
2022-10-19 01:04:01+00:00,71.0,7.07,72.0,9.66,12.57,47.59359,-54.27349
2022-10-19 01:14:00+00:00,71.0,6.33,63.0,8.7,12.49,47.59359,-54.27349
2022-10-19 01:24:00+00:00,73.0,5.27,70.0,7.64,12.49,47.59359,-54.27349
2022-10-19 01:34:00+00:00,68.0,5.61,66.0,7.95,12.49,47.59359,-54.27349
2022-10-19 01:44:00+00:00,71.0,5.21,58.0,7.55,12.49,47.59359,-54.27349
2022-10-19 01:54:00+00:00,72.0,4.11,80.0,5.42,12.49,47.59359,-54.27349
2022-10-19 02:04:00+00:00,73.0,4.41,90.0,6.09,12.49,47.59359,-54.27349
2022-10-19 02:14:01+00:00,74.0,3.82,73.0,5.77,12.49,47.59359,-54.27349
2022-10-19 02:24:01+00:00,70.0,6.61,71.0,8.32,12.49,47.59359,-54.27349
2022-10-19 02:34:01+00:00,67.0,7.03,69.0,8.33,12.49,47.59359,-54.27349
2022-10-19 02:44:01+00:00,67.0,5.85,70.0,7.37,12.49,47.59359,-54.27349
2022-10-19 02:54:01+00:00,69.0,5.29,69.0,6.28,12.49,47.59359,-54.27349
2022-10-19 03:04:01+00:00,61.0,5.62,62.0,6.25,12.49,47.59359,-54.27349
2022-10-19 03:14:01+00:00,58.0,5.6,59.0,6.39,12.49,47.59359,-54.27349
2022-10-19 03:24:01+00:00,50.0,6.03,42.0,6.99,12.49,47.59359,-54.27349
2022-10-19 03:34:01+00:00,56.0,5.68,52.0,6.29,12.49,47.59359,-54.27349
2022-10-19 03:44:01+00:00,55.0,6.31,54.0,7.11,12.49,47.59359,-54.27349
2022-10-19 03:54:01+00:00,53.0,6.32,54.0,7.09,12.49,47.59359,-54.27349
2022-10-19 04:04:01+00:00,54.0,6.06,56.0,6.87,12.49,47.59359,-54.27349
2022-10-19 04:14:00+00:00,57.0,6.62,58.0,7.53,12.41,47.59359,-54.27349
2022-10-19 04:24:00+00:00,62.0,6.43,62.0,8.04,12.41,47.59359,-54.27349
2022-10-19 04:34:00+00:00,51.0,6.84,51.0,8.02,12.41,47.59359,-54.27349
2022-10-19 04:44:00+00:00,57.0,6.37,54.0,7.03,12.41,47.59359,-54.27349
2022-10-19 04:54:00+00:00,56.0,6.65,53.0,7.79,12.41,47.59359,-54.27349
2022-10-19 05:04:00+00:00,52.0,6.82,49.0,7.42,12.41,47.59359,-54.27349
2022-10-19 05:14:00+00:00,51.0,7.11,51.0,7.5,12.41,47.59359,-54.27349
2022-10-19 05:24:00+00:00,58.0,6.87,59.0,7.53,12.41,47.59359,-54.27349
2022-10-19 05:34:00+00:00,61.0,5.77,52.0,6.72,12.41,47.59359,-54.27349
2022-10-19 05:44:00+00:00,63.0,5.73,61.0,6.42,12.41,47.59359,-54.27349
2022-10-19 05:54:00+00:00,60.0,4.71,54.0,5.31,12.41,47.59359,-54.27349
2022-10-19 06:04:00+00:00,57.0,5.18,57.0,5.61,12.41,47.59359,-54.27349
2022-10-19 06:14:01+00:00,50.0,6.06,50.0,6.78,12.41,47.59359,-54.27349
2022-10-19 06:24:01+00:00,52.0,6.44,50.0,7.04,12.41,47.59359,-54.27349
2022-10-19 06:34:01+00:00,57.0,6.2,57.0,7.07,12.41,47.59359,-54.27349
2022-10-19 06:44:01+00:00,52.0,6.16,51.0,6.83,12.41,47.59359,-54.27349
2022-10-19 06:54:01+00:00,49.0,6.41,46.0,6.91,12.41,47.59359,-54.27349
2022-10-19 07:04:01+00:00,48.0,5.91,48.0,6.45,12.41,47.59359,-54.27349
2022-10-19 07:14:00+00:00,50.0,6.38,49.0,7.16,12.41,47.59359,-54.27349
2022-10-19 07:24:00+00:00,52.0,6.83,53.0,7.32,12.41,47.59359,-54.27349
2022-10-19 07:34:00+00:00,51.0,6.99,52.0,7.68,12.41,47.59359,-54.27349
2022-10-19 07:44:00+00:00,54.0,7.0,53.0,7.65,12.41,47.59359,-54.27349
2022-10-19 07:54:00+00:00,54.0,6.74,55.0,7.25,12.41,47.59359,-54.27349
2022-10-19 08:04:00+00:00,52.0,6.17,50.0,6.94,12.41,47.59359,-54.27349
2022-10-19 08:14:00+00:00,55.0,6.11,52.0,6.84,12.41,47.59359,-54.27349
2022-10-19 08:24:00+00:00,51.0,5.93,51.0,6.45,12.41,47.59359,-54.27349
2022-10-19 08:34:00+00:00,59.0,5.51,63.0,6.04,12.41,47.59359,-54.27349
2022-10-19 08:44:00+00:00,57.0,5.04,57.0,5.59,12.41,47.59359,-54.27349
2022-10-19 08:54:00+00:00,56.0,5.09,55.0,5.62,12.41,47.59359,-54.27349
2022-10-19 09:04:00+00:00,56.0,4.77,53.0,5.3,12.41,47.59359,-54.27349
2022-10-19 09:14:01+00:00,56.0,4.9,56.0,5.46,12.41,47.59359,-54.27349
2022-10-19 09:24:01+00:00,57.0,5.35,52.0,5.89,12.41,47.59359,-54.27349
2022-10-19 09:34:01+00:00,55.0,5.61,58.0,6.19,12.41,47.59359,-54.27349
2022-10-19 09:44:01+00:00,56.0,5.74,56.0,6.1,12.41,47.59359,-54.27349
2022-10-19 09:54:01+00:00,54.0,5.42,53.0,5.86,12.41,47.59359,-54.27349
2022-10-19 10:04:01+00:00,58.0,5.4,55.0,5.87,12.41,47.59359,-54.27349
2022-10-19 10:14:01+00:00,56.0,5.26,52.0,5.72,12.33,47.59359,-54.27349
2022-10-19 10:24:01+00:00,57.0,4.79,58.0,5.34,12.33,47.59359,-54.27349
2022-10-19 10:34:01+00:00,54.0,4.5,51.0,4.76,12.33,47.59359,-54.27349
2022-10-19 10:44:01+00:00,55.0,4.32,54.0,4.79,12.33,47.59359,-54.27349
2022-10-19 10:54:01+00:00,48.0,4.61,43.0,5.03,12.33,47.59359,-54.27349
2022-10-19 11:04:01+00:00,50.0,4.21,50.0,4.7,12.33,47.59359,-54.27349
2022-10-19 11:14:01+00:00,44.0,4.1,38.0,4.68,12.41,47.59359,-54.27349
2022-10-19 11:24:01+00:00,45.0,3.56,45.0,4.22,12.41,47.59359,-54.27349
2022-10-19 11:34:01+00:00,46.0,4.65,43.0,5.16,12.41,47.59359,-54.27349
2022-10-19 11:44:01+00:00,38.0,5.44,38.0,5.74,12.41,47.59359,-54.27349
2022-10-19 11:54:01+00:00,35.0,5.17,36.0,5.71,12.41,47.59359,-54.27349
2022-10-19 12:04:01+00:00,29.0,5.65,26.0,5.99,12.41,47.59359,-54.27349
2022-10-19 12:14:00+00:00,30.0,5.18,29.0,5.71,12.57,47.59359,-54.27349
2022-10-19 12:24:00+00:00,31.0,5.1,32.0,5.58,12.57,47.59359,-54.27349
2022-10-19 12:34:00+00:00,35.0,5.74,37.0,6.06,12.57,47.59359,-54.27349
2022-10-19 12:44:00+00:00,36.0,5.26,39.0,5.73,12.57,47.59359,-54.27349
2022-10-19 12:54:00+00:00,36.0,5.12,40.0,5.43,12.57,47.59359,-54.27349
2022-10-19 13:04:00+00:00,33.0,4.79,32.0,5.06,12.57,47.59359,-54.27349
2022-10-19 13:14:00+00:00,45.0,4.61,39.0,5.1,13.6,47.59359,-54.27349
2022-10-19 13:24:00+00:00,45.0,4.55,45.0,4.92,13.6,47.59359,-54.27349
2022-10-19 13:34:00+00:00,52.0,4.23,47.0,4.86,13.6,47.59359,-54.27349
2022-10-19 13:44:00+00:00,61.0,4.4,67.0,4.68,13.6,47.59359,-54.27349
2022-10-19 13:54:00+00:00,66.0,4.11,69.0,4.49,13.6,47.59359,-54.27349
2022-10-19 14:04:00+00:00,60.0,3.97,59.0,4.26,13.6,47.59359,-54.27349
2022-10-19 14:14:01+00:00,68.0,3.29,63.0,3.97,13.37,47.59359,-54.27349
2022-10-19 14:24:01+00:00,108.0,1.99,102.0,3.23,13.37,47.59359,-54.27349
2022-10-19 14:34:01+00:00,131.0,3.13,138.0,3.95,13.37,47.59359,-54.27349
2022-10-19 14:44:01+00:00,120.0,3.11,126.0,3.75,13.37,47.59359,-54.27349
2022-10-19 14:54:01+00:00,100.0,1.36,96.0,3.11,13.37,47.59359,-54.27349
2022-10-19 15:04:01+00:00,71.0,2.49,72.0,3.01,13.37,47.59359,-54.27349
2022-10-19 15:14:01+00:00,70.0,2.09,76.0,3.05,14.0,47.59359,-54.27349
2022-10-19 15:24:01+00:00,37.0,1.37,36.0,1.54,14.0,47.59359,-54.27349
2022-10-19 15:34:01+00:00,7.0,1.64,10.0,1.84,14.0,47.59359,-54.27349
2022-10-19 15:44:01+00:00,18.0,2.5,20.0,2.71,14.0,47.59359,-54.27349
2022-10-19 15:54:01+00:00,11.0,2.97,18.0,3.55,14.0,47.59359,-54.27349
2022-10-19 16:04:01+00:00,21.0,3.39,24.0,3.95,14.0,47.59359,-54.27349
2022-10-19 16:14:00+00:00,28.0,3.21,31.0,3.57,14.32,47.59359,-54.27349
2022-10-19 16:24:00+00:00,20.0,2.79,16.0,3.24,14.32,47.59359,-54.27349
2022-10-19 16:34:00+00:00,4.0,2.97,356.0,3.56,14.32,47.59359,-54.27349
2022-10-19 16:44:00+00:00,9.0,3.35,4.0,3.99,14.32,47.59359,-54.27349
2022-10-19 16:54:00+00:00,11.0,3.67,17.0,4.27,14.32,47.59359,-54.27349
2022-10-19 17:04:00+00:00,21.0,3.32,27.0,3.89,14.32,47.59359,-54.27349
2022-10-19 17:14:00+00:00,30.0,3.59,33.0,3.93,13.92,47.59359,-54.27349
2022-10-19 17:24:00+00:00,29.0,3.08,30.0,3.4,13.92,47.59359,-54.27349
2022-10-19 17:34:00+00:00,29.0,3.21,30.0,3.43,13.92,47.59359,-54.27349
2022-10-19 17:44:00+00:00,34.0,3.64,36.0,4.05,13.92,47.59359,-54.27349
2022-10-19 17:54:00+00:00,34.0,3.3,33.0,3.49,13.92,47.59359,-54.27349
2022-10-19 18:04:00+00:00,35.0,2.79,36.0,3.15,13.92,47.59359,-54.27349
2022-10-19 18:14:00+00:00,35.0,1.63,34.0,2.57,14.0,47.59359,-54.27349
2022-10-19 18:24:00+00:00,30.0,2.91,32.0,3.1,14.0,47.59359,-54.27349
2022-10-19 18:34:00+00:00,41.0,2.75,39.0,3.08,14.0,47.59359,-54.27349
2022-10-19 18:44:00+00:00,43.0,1.96,46.0,2.4,14.0,47.59359,-54.27349
2022-10-19 18:54:00+00:00,33.0,2.25,32.0,2.57,14.0,47.59359,-54.27349
2022-10-19 19:04:00+00:00,46.0,2.63,48.0,3.32,14.0,47.59359,-54.27349
2022-10-19 19:14:00+00:00,29.0,2.82,30.0,3.02,13.84,47.59359,-54.27349
2022-10-19 19:24:00+00:00,31.0,2.33,32.0,2.51,13.84,47.59359,-54.27349
2022-10-19 19:34:00+00:00,24.0,1.51,19.0,1.73,13.84,47.59359,-54.27349
2022-10-19 19:44:00+00:00,29.0,1.62,32.0,1.82,13.84,47.59359,-54.27349
2022-10-19 19:54:00+00:00,40.0,2.21,37.0,2.56,13.84,47.59359,-54.27349
2022-10-19 20:04:00+00:00,24.0,1.81,25.0,1.95,13.84,47.59359,-54.27349
2022-10-19 20:14:00+00:00,33.0,1.75,35.0,1.95,13.37,47.59359,-54.27349
2022-10-19 20:24:00+00:00,37.0,1.41,39.0,1.58,13.37,47.59359,-54.27349
2022-10-19 20:34:00+00:00,42.0,1.94,44.0,2.29,13.37,47.59359,-54.27349
2022-10-19 20:44:00+00:00,43.0,1.92,48.0,2.24,13.37,47.59359,-54.27349
2022-10-19 20:54:00+00:00,62.0,2.5,62.0,3.06,13.37,47.59359,-54.27349
2022-10-19 21:04:00+00:00,64.0,2.25,65.0,2.78,13.37,47.59359,-54.27349
2022-10-19 21:14:01+00:00,68.0,1.79,71.0,2.17,12.65,47.59359,-54.27349
2022-10-19 21:24:01+00:00,60.0,2.04,65.0,2.21,12.65,47.59359,-54.27349
2022-10-19 21:34:01+00:00,83.0,1.85,75.0,2.12,12.65,47.59359,-54.27349
2022-10-19 21:44:01+00:00,89.0,1.47,74.0,1.93,12.65,47.59359,-54.27349
2022-10-19 21:54:01+00:00,86.0,1.03,84.0,1.57,12.65,47.59359,-54.27349
2022-10-19 22:04:01+00:00,87.0,1.39,80.0,1.74,12.65,47.59359,-54.27349
2022-10-19 22:14:00+00:00,105.0,1.17,112.0,1.93,12.49,47.59359,-54.27349
2022-10-19 22:24:00+00:00,118.0,0.75,127.0,1.13,12.49,47.59359,-54.27349
2022-10-19 22:34:00+00:00,131.0,0.72,132.0,0.86,12.49,47.59359,-54.27349
2022-10-19 22:44:00+00:00,133.0,0.91,132.0,1.25,12.49,47.59359,-54.27349
2022-10-19 22:54:00+00:00,110.0,0.75,118.0,1.04,12.49,47.59359,-54.27349
2022-10-19 23:04:00+00:00,119.0,2.15,122.0,2.62,12.49,47.59359,-54.27349
2022-10-19 23:14:00+00:00,133.0,3.3,125.0,3.81,12.57,47.59359,-54.27349
2022-10-19 23:24:00+00:00,121.0,2.96,124.0,3.69,12.57,47.59359,-54.27349
2022-10-19 23:34:00+00:00,104.0,1.49,88.0,2.83,12.57,47.59359,-54.27349
2022-10-19 23:44:00+00:00,111.0,2.65,124.0,4.22,12.57,47.59359,-54.27349
2022-10-19 23:54:00+00:00,119.0,3.36,133.0,5.57,12.57,47.59359,-54.27349
